| time (UTC) | temp F | wind direction | speed MPH | gust MPH | rain 1hr in | rain 24hr in | rain mn in | humidity % | barometer mb |
| 20260507020701 | 49 | 355 | 1.0 | 5.0 | 0.00 | 0.21 | 0.21 | 94 | 1010.3 |
| 20260507020202 | 50 | 345 | 1.0 | 4.0 | 0.00 | 0.21 | 0.21 | 94 | 1010.3 |
| 20260507015701 | 50 | 347 | 1.0 | 3.0 | 0.00 | 0.21 | 0.21 | 94 | 1010.3 |
| 20260507015201 | 50 | 348 | 1.0 | 5.0 | 0.00 | 0.21 | 0.21 | 94 | 1010.1 |
| 20260507014702 | 50 | 351 | 1.0 | 4.0 | 0.00 | 0.21 | 0.21 | 94 | 1010.2 |
| 20260507014201 | 50 | 350 | 1.0 | 5.0 | 0.00 | 0.21 | 0.21 | 94 | 1010.4 |
| 20260507013701 | 50 | 1 | 2.0 | 4.0 | 0.00 | 0.21 | 0.21 | 94 | 1010.5 |
| 20260507013202 | 50 | 340 | 2.0 | 9.0 | 0.00 | 0.21 | 0.21 | 94 | 1010.3 |
| 20260507012701 | 50 | 351 | 1.0 | 7.0 | 0.00 | 0.21 | 0.21 | 94 | 1010.1 |
| 20260507012201 | 50 | 351 | 1.0 | 3.0 | 0.00 | 0.21 | 0.21 | 94 | 1010.2 |
| 20260507011701 | 50 | 345 | 2.0 | 5.0 | 0.00 | 0.21 | 0.21 | 94 | 1010.3 |
| 20260507010701 | 50 | 353 | 2.0 | 5.0 | 0.00 | 0.21 | 0.21 | 94 | 1010.3 |
| 20260507010201 | 50 | 337 | 2.0 | 5.0 | 0.00 | 0.21 | 0.21 | 94 | 1010.2 |
| 20260507005701 | 51 | 324 | 2.0 | 7.0 | 0.00 | 0.21 | 0.21 | 94 | 1009.9 |
| 20260507005201 | 51 | 358 | 3.0 | 7.0 | 0.00 | 0.21 | 0.21 | 93 | 1009.9 |
| 20260507004702 | 51 | 357 | 4.0 | 9.0 | 0.00 | 0.21 | 0.21 | 94 | 1009.8 |
| 20260507004244 | 51 | 346 | 3.0 | 11.0 | 0.00 | 0.21 | 0.21 | 94 | 1009.5 |
| 20260507003701 | 51 | 2 | 2.0 | 6.0 | 0.00 | 0.21 | 0.21 | 94 | 1009.2 |
| 20260507003202 | 51 | 25 | 2.0 | 7.0 | 0.00 | 0.21 | 0.21 | 93 | 1009.2 |
| 20260507002201 | 52 | 347 | 3.0 | 9.0 | 0.00 | 0.21 | 0.21 | 94 | 1009.1 |
| 20260507001744 | 52 | 18 | 3.0 | 10.0 | 0.00 | 0.21 | 0.21 | 94 | 1008.9 |
| 20260507001201 | 52 | 8 | 3.0 | 9.0 | 0.00 | 0.21 | 0.21 | 94 | 1008.8 |
| 20260507000702 | 53 | 11 | 2.0 | 6.0 | 0.00 | 0.21 | 0.21 | 94 | 1008.7 |
| 20260507000202 | 53 | 357 | 3.0 | 7.0 | 0.00 | 0.21 | 0.21 | 94 | 1008.5 |
| 20260506235701 | 53 | 353 | 2.0 | 5.0 | 0.00 | 0.21 | 0.21 | 94 | 1008.3 |
| 20260506235201 | 53 | 24 | 1.0 | 6.0 | 0.00 | 0.21 | 0.21 | 94 | 1008.3 |
| 20260506234702 | 53 | 35 | 1.0 | 5.0 | 0.00 | 0.21 | 0.21 | 94 | 1008.3 |
| 20260506234201 | 54 | 334 | 1.0 | 6.0 | 0.00 | 0.21 | 0.21 | 94 | 1008.2 |
| 20260506233702 | 54 | 327 | 1.0 | 4.0 | 0.00 | 0.21 | 0.21 | 94 | 1008.1 |
| 20260506233202 | 54 | 325 | 1.0 | 4.0 | 0.00 | 0.21 | 0.21 | 94 | 1008.1 |
| 20260506232701 | 54 | 11 | 1.0 | 6.0 | 0.00 | 0.21 | 0.21 | 94 | 1007.9 |
| 20260506232201 | 54 | 5 | 1.0 | 6.0 | 0.00 | 0.21 | 0.21 | 94 | 1007.9 |
| 20260506231701 | 54 | 354 | 2.0 | 5.0 | 0.00 | 0.21 | 0.21 | 94 | 1007.7 |
| 20260506231201 | 55 | 335 | 2.0 | 5.0 | 0.00 | 0.21 | 0.21 | 94 | 1007.6 |
| 20260506230702 | 55 | 358 | 1.0 | 7.0 | 0.00 | 0.21 | 0.21 | 94 | 1007.5 |
| 20260506230244 | 55 | 0 | 2.0 | 5.0 | 0.00 | 0.21 | 0.21 | 93 | 1007.3 |
| 20260506225701 | 55 | 334 | 2.0 | 5.0 | 0.00 | 0.21 | 0.21 | 93 | 1007.3 |
| 20260506225201 | 56 | 340 | 3.0 | 9.0 | 0.00 | 0.21 | 0.21 | 93 | 1007.3 |
| 20260506224701 | 56 | 326 | 3.0 | 9.0 | 0.00 | 0.21 | 0.21 | 93 | 1007.3 |
| 20260506224201 | 56 | 310 | 2.0 | 14.0 | 0.00 | 0.21 | 0.21 | 93 | 1007.3 |
| 20260506223701 | 57 | 359 | 2.0 | 5.0 | 0.00 | 0.21 | 0.21 | 93 | 1007.1 |
| 20260506223201 | 57 | 0 | 3.0 | 7.0 | 0.00 | 0.21 | 0.21 | 92 | 1007.0 |
| 20260506222702 | 58 | 348 | 3.0 | 10.0 | 0.00 | 0.21 | 0.21 | 92 | 1006.9 |
| 20260506222201 | 59 | 330 | 3.0 | 11.0 | 0.00 | 0.21 | 0.21 | 92 | 1006.9 |
| 20260506221702 | 59 | 306 | 3.0 | 9.0 | 0.00 | 0.21 | 0.21 | 92 | 1006.7 |
| 20260506221202 | 60 | 346 | 3.0 | 8.0 | 0.00 | 0.21 | 0.21 | 93 | 1006.4 |
| 20260506220702 | 61 | 278 | 3.0 | 7.0 | 0.00 | 0.21 | 0.21 | 93 | 1006.1 |
| 20260506220201 | 61 | 260 | 3.0 | 9.0 | 0.00 | 0.21 | 0.21 | 93 | 1005.9 |
| 20260506215701 | 61 | 271 | 3.0 | 6.0 | 0.00 | 0.21 | 0.21 | 93 | 1005.8 |
| 20260506215201 | 62 | 260 | 3.0 | 8.0 | 0.00 | 0.21 | 0.21 | 93 | 1005.7 |
| 20260506214702 | 62 | 263 | 2.0 | 9.0 | 0.00 | 0.21 | 0.21 | 94 | 1005.7 |
| 20260506214201 | 62 | 267 | 2.0 | 9.0 | 0.00 | 0.21 | 0.21 | 94 | 1005.6 |
| 20260506213744 | 63 | 285 | 3.0 | 10.0 | 0.00 | 0.21 | 0.21 | 94 | 1005.5 |
| 20260506213201 | 63 | 275 | 3.0 | 10.0 | 0.00 | 0.21 | 0.21 | 95 | 1005.4 |
| 20260506212701 | 63 | 276 | 1.0 | 6.0 | 0.00 | 0.21 | 0.21 | 96 | 1005.2 |
| 20260506212202 | 62 | 275 | 2.0 | 7.0 | 0.00 | 0.21 | 0.21 | 96 | 1005.2 |
| 20260506211701 | 62 | 285 | 2.0 | 10.0 | 0.00 | 0.21 | 0.21 | 96 | 1005.2 |
| 20260506211201 | 62 | 249 | 2.0 | 8.0 | 0.00 | 0.21 | 0.21 | 96 | 1005.2 |
| 20260506210701 | 62 | 255 | 2.0 | 12.0 | 0.00 | 0.21 | 0.21 | 96 | 1005.1 |
| 20260506210202 | 62 | 237 | 2.0 | 7.0 | 0.00 | 0.21 | 0.21 | 96 | 1005.0 |
| 20260506205701 | 62 | 242 | 1.0 | 7.0 | 0.00 | 0.21 | 0.21 | 96 | 1005.0 |
| 20260506205201 | 62 | 223 | 1.0 | 6.0 | 0.00 | 0.21 | 0.21 | 96 | 1005.0 |
| 20260506204701 | 61 | 256 | 1.0 | 9.0 | 0.00 | 0.21 | 0.21 | 95 | 1004.9 |
| 20260506204202 | 62 | 278 | 2.0 | 6.0 | 0.00 | 0.21 | 0.21 | 95 | 1004.9 |
| 20260506203743 | 62 | 240 | 2.0 | 6.0 | 0.00 | 0.21 | 0.21 | 95 | 1004.8 |
| 20260506203201 | 62 | 261 | 2.0 | 5.0 | 0.00 | 0.21 | 0.21 | 96 | 1004.9 |
| 20260506202744 | 62 | 257 | 3.0 | 6.0 | 0.00 | 0.21 | 0.21 | 96 | 1004.9 |
| 20260506202202 | 62 | 228 | 1.0 | 10.0 | 0.00 | 0.21 | 0.21 | 96 | 1004.8 |
| 20260506201702 | 61 | 195 | 1.0 | 4.0 | 0.00 | 0.21 | 0.21 | 96 | 1004.8 |
| 20260506201202 | 61 | 216 | 1.0 | 5.0 | 0.00 | 0.21 | 0.21 | 96 | 1004.8 |
| 20260506200202 | 61 | 253 | 1.0 | 3.0 | 0.00 | 0.21 | 0.21 | 96 | 1004.8 |
| 20260506195744 | 62 | 214 | 1.0 | 5.0 | 0.00 | 0.21 | 0.21 | 96 | 1004.9 |
| 20260506195244 | 62 | 253 | 2.0 | 7.0 | 0.00 | 0.21 | 0.21 | 96 | 1004.9 |
| 20260506194702 | 62 | 261 | 2.0 | 11.0 | 0.00 | 0.21 | 0.21 | 96 | 1004.9 |
| 20260506194244 | 62 | 222 | 2.0 | 9.0 | 0.00 | 0.21 | 0.21 | 97 | 1004.9 |
| 20260506193744 | 62 | 257 | 2.0 | 7.0 | 0.00 | 0.21 | 0.21 | 97 | 1004.9 |
| 20260506193201 | 62 | 242 | 1.0 | 3.0 | 0.00 | 0.21 | 0.21 | 97 | 1004.8 |
| 20260506192744 | 62 | 244 | 1.0 | 8.0 | 0.00 | 0.21 | 0.21 | 97 | 1004.8 |
| 20260506192202 | 61 | 228 | 2.0 | 7.0 | 0.00 | 0.21 | 0.21 | 97 | 1005.0 |
| 20260506191701 | 61 | 209 | 2.0 | 8.0 | 0.00 | 0.21 | 0.21 | 97 | 1004.9 |
| 20260506191202 | 61 | 212 | 2.0 | 10.0 | 0.00 | 0.21 | 0.21 | 97 | 1005.1 |
| 20260506190744 | 61 | 245 | 2.0 | 9.0 | 0.00 | 0.21 | 0.21 | 97 | 1005.1 |
| 20260506190202 | 61 | 248 | 2.0 | 5.0 | 0.00 | 0.21 | 0.21 | 97 | 1005.0 |
| 20260506185744 | 61 | 217 | 2.0 | 9.0 | 0.00 | 0.21 | 0.21 | 97 | 1005.1 |
| 20260506185202 | 61 | 221 | 1.0 | 6.0 | 0.00 | 0.21 | 0.21 | 97 | 1005.1 |
| 20260506184702 | 61 | 193 | 1.0 | 3.0 | 0.00 | 0.21 | 0.21 | 97 | 1005.1 |
| 20260506183702 | 61 | 237 | 1.0 | 4.0 | 0.00 | 0.21 | 0.21 | 97 | 1005.1 |
| 20260506183201 | 60 | 223 | 1.0 | 3.0 | 0.00 | 0.21 | 0.21 | 97 | 1005.1 |
| 20260506182701 | 60 | 226 | 1.0 | 4.0 | 0.00 | 0.21 | 0.21 | 97 | 1005.0 |
| 20260506182201 | 60 | 133 | 1.0 | 3.0 | 0.00 | 0.21 | 0.21 | 98 | 1005.2 |
| 20260506181702 | 60 | 252 | 1.0 | 5.0 | 0.01 | 0.21 | 0.21 | 97 | 1005.1 |
| 20260506181202 | 60 | 135 | 1.0 | 6.0 | 0.01 | 0.21 | 0.21 | 97 | 1005.2 |
| 20260506180702 | 60 | 203 | 1.0 | 5.0 | 0.01 | 0.21 | 0.21 | 97 | 1005.3 |
| 20260506180201 | 60 | 180 | 1.0 | 6.0 | 0.01 | 0.21 | 0.21 | 97 | 1005.4 |
| 20260506175743 | 60 | 199 | 1.0 | 4.0 | 0.01 | 0.21 | 0.21 | 97 | 1005.4 |
| 20260506175201 | 59 | 199 | 1.0 | 4.0 | 0.02 | 0.21 | 0.21 | 97 | 1005.3 |
| 20260506174743 | 59 | 154 | 1.0 | 3.0 | 0.02 | 0.21 | 0.21 | 97 | 1005.4 |
| 20260506174244 | 59 | 166 | 1.0 | 4.0 | 0.02 | 0.21 | 0.21 | 97 | 1005.5 |
| 20260506173701 | 59 | 185 | 1.0 | 5.0 | 0.02 | 0.21 | 0.21 | 97 | 1005.4 |
| 20260506173202 | 59 | 177 | 1.0 | 3.0 | 0.02 | 0.21 | 0.21 | 97 | 1005.4 |
| 20260506172702 | 59 | 221 | 1.0 | 5.0 | 0.02 | 0.21 | 0.21 | 97 | 1005.4 |
| 20260506172202 | 59 | 183 | 1.0 | 5.0 | 0.02 | 0.21 | 0.21 | 97 | 1005.4 |
| 20260506171702 | 59 | 213 | 1.0 | 6.0 | 0.01 | 0.20 | 0.20 | 97 | 1005.5 |
| 20260506171202 | 59 | 215 | 1.0 | 8.0 | 0.01 | 0.20 | 0.20 | 97 | 1005.5 |
| 20260506170702 | 59 | 242 | 2.0 | 7.0 | 0.01 | 0.20 | 0.20 | 97 | 1005.6 |
| 20260506170202 | 59 | 242 | 2.0 | 4.0 | 0.01 | 0.20 | 0.20 | 96 | 1005.6 |
| 20260506165744 | 59 | 200 | 2.0 | 10.0 | 0.01 | 0.20 | 0.20 | 96 | 1005.6 |
| 20260506165244 | 59 | 210 | 2.0 | 10.0 | 0.00 | 0.19 | 0.19 | 96 | 1005.6 |
| 20260506164702 | 59 | 210 | 2.0 | 9.0 | 0.00 | 0.19 | 0.19 | 96 | 1005.6 |
| 20260506164244 | 59 | 228 | 2.0 | 7.0 | 0.00 | 0.19 | 0.19 | 96 | 1005.5 |
| 20260506163702 | 59 | 271 | 1.0 | 7.0 | 0.00 | 0.19 | 0.19 | 96 | 1005.5 |
| 20260506163202 | 59 | 215 | 1.0 | 6.0 | 0.00 | 0.19 | 0.19 | 96 | 1005.5 |
| 20260506162702 | 59 | 223 | 1.0 | 10.0 | 0.00 | 0.19 | 0.19 | 96 | 1005.5 |
| 20260506162202 | 59 | 161 | 0.0 | 4.0 | 0.00 | 0.19 | 0.19 | 96 | 1005.4 |
| 20260506161702 | 59 | 230 | 1.0 | 2.0 | 0.00 | 0.19 | 0.19 | 96 | 1005.5 |
| 20260506161244 | 59 | 223 | 1.0 | 11.0 | 0.01 | 0.19 | 0.19 | 96 | 1005.5 |
| 20260506160701 | 59 | 247 | 2.0 | 3.0 | 0.02 | 0.19 | 0.19 | 96 | 1005.5 |
| 20260506160202 | 59 | 221 | 2.0 | 6.0 | 0.02 | 0.19 | 0.19 | 96 | 1005.4 |
| 20260506155702 | 59 | 164 | 1.0 | 12.0 | 0.02 | 0.19 | 0.19 | 96 | 1005.5 |
| 20260506155202 | 59 | 228 | 1.0 | 6.0 | 0.03 | 0.19 | 0.19 | 96 | 1005.4 |
| 20260506154702 | 59 | 210 | 1.0 | 6.0 | 0.03 | 0.19 | 0.19 | 96 | 1005.3 |
| 20260506154202 | 59 | 184 | 1.0 | 4.0 | 0.03 | 0.19 | 0.19 | 96 | 1005.2 |
| 20260506153744 | 59 | 276 | 0.0 | 4.0 | 0.06 | 0.19 | 0.19 | 96 | 1005.1 |
| 20260506153202 | 59 | 226 | 1.0 | 5.0 | 0.06 | 0.19 | 0.19 | 96 | 1004.9 |
| 20260506152702 | 59 | 209 | 1.0 | 11.0 | 0.06 | 0.19 | 0.19 | 96 | 1005.0 |
| 20260506152202 | 59 | 115 | 0.0 | 1.0 | 0.06 | 0.19 | 0.19 | 96 | 1005.1 |
| 20260506151702 | 59 | 115 | 1.0 | 2.0 | 0.06 | 0.19 | 0.19 | 96 | 1005.1 |
| 20260506151201 | 59 | 184 | 1.0 | 7.0 | 0.05 | 0.18 | 0.18 | 96 | 1005.2 |
| 20260506150702 | 59 | 112 | 1.0 | 5.0 | 0.04 | 0.17 | 0.17 | 96 | 1005.2 |
| 20260506150244 | 59 | 64 | 1.0 | 13.0 | 0.05 | 0.17 | 0.17 | 96 | 1005.3 |
| 20260506145744 | 59 | 165 | 1.0 | 10.0 | 0.05 | 0.17 | 0.17 | 96 | 1005.4 |
| 20260506144702 | 59 | 248 | 1.0 | 4.0 | 0.04 | 0.15 | 0.15 | 96 | 1005.7 |
| 20260506143744 | 59 | 209 | 1.0 | 5.0 | 0.04 | 0.13 | 0.13 | 95 | 1005.6 |
| 20260506143202 | 59 | 233 | 1.0 | 4.0 | 0.04 | 0.13 | 0.13 | 95 | 1005.6 |
| 20260506142702 | 59 | 193 | 1.0 | 4.0 | 0.04 | 0.13 | 0.13 | 95 | 1005.6 |
| 20260506142202 | 59 | 203 | 1.0 | 4.0 | 0.04 | 0.13 | 0.13 | 95 | 1005.5 |
| 20260506141701 | 59 | 172 | 1.0 | 7.0 | 0.04 | 0.13 | 0.13 | 95 | 1005.4 |
| 20260506141244 | 59 | 197 | 1.0 | 5.0 | 0.05 | 0.13 | 0.13 | 95 | 1005.2 |
| 20260506140702 | 58 | 197 | 1.0 | 6.0 | 0.05 | 0.13 | 0.13 | 95 | 1005.2 |
| 20260506140202 | 58 | 152 | 1.0 | 2.0 | 0.04 | 0.12 | 0.12 | 95 | 1005.4 |
| 20260506135201 | 58 | 179 | 1.0 | 12.0 | 0.05 | 0.11 | 0.11 | 95 | 1005.5 |
| 20260506134702 | 58 | 133 | 1.0 | 5.0 | 0.05 | 0.11 | 0.11 | 94 | 1005.5 |
| 20260506134201 | 58 | 137 | 1.0 | 4.0 | 0.06 | 0.11 | 0.11 | 94 | 1005.5 |
| 20260506133202 | 58 | 154 | 0.0 | 4.0 | 0.05 | 0.09 | 0.09 | 94 | 1005.8 |
| 20260506132701 | 58 | 155 | 0.0 | 1.0 | 0.05 | 0.09 | 0.09 | 93 | 1005.6 |
| 20260506132202 | 58 | 155 | 1.0 | 3.0 | 0.05 | 0.09 | 0.09 | 93 | 1005.7 |
| 20260506131703 | 58 | 156 | 0.0 | 4.0 | 0.06 | 0.09 | 0.09 | 93 | 1005.7 |
| 20260506131202 | 58 | 269 | 1.0 | 5.0 | 0.05 | 0.08 | 0.08 | 93 | 1005.6 |
| 20260506130701 | 58 | 274 | 1.0 | 9.0 | 0.05 | 0.08 | 0.08 | 93 | 1005.7 |
| 20260506130244 | 58 | 146 | 1.0 | 7.0 | 0.05 | 0.08 | 0.08 | 93 | 1005.8 |
| 20260506125702 | 59 | 216 | 1.0 | 4.0 | 0.05 | 0.07 | 0.07 | 92 | 1005.8 |
| 20260506125244 | 59 | 171 | 1.0 | 5.0 | 0.04 | 0.06 | 0.06 | 92 | 1005.9 |
| 20260506124702 | 59 | 193 | 1.0 | 6.0 | 0.04 | 0.06 | 0.06 | 92 | 1006.0 |
| 20260506124201 | 59 | 183 | 2.0 | 4.0 | 0.04 | 0.05 | 0.05 | 91 | 1006.0 |
| 20260506123702 | 59 | 180 | 2.0 | 10.0 | 0.05 | 0.05 | 0.05 | 91 | 1006.0 |
| 20260506123202 | 59 | 181 | 1.0 | 6.0 | 0.04 | 0.04 | 0.04 | 91 | 1006.1 |
| 20260506122702 | 59 | 179 | 2.0 | 7.0 | 0.04 | 0.04 | 0.04 | 90 | 1006.1 |
| 20260506121702 | 59 | 153 | 1.0 | 6.0 | 0.03 | 0.03 | 0.03 | 89 | 1006.2 |
| 20260506121201 | 60 | 177 | 1.0 | 7.0 | 0.03 | 0.03 | 0.03 | 88 | 1006.0 |
| 20260506120744 | 60 | 154 | 1.0 | 7.0 | 0.03 | 0.03 | 0.03 | 87 | 1006.0 |
| 20260506120201 | 60 | 200 | 1.0 | 5.0 | 0.03 | 0.03 | 0.03 | 86 | 1005.9 |
| 20260506115744 | 61 | 225 | 1.0 | 2.0 | 0.02 | 0.02 | 0.02 | 85 | 1005.9 |
| 20260506115201 | 61 | 220 | 1.0 | 5.0 | 0.02 | 0.02 | 0.02 | 84 | 1005.9 |
| 20260506114744 | 62 | 167 | 1.0 | 6.0 | 0.02 | 0.02 | 0.02 | 82 | 1005.9 |
| 20260506113702 | 63 | 192 | 1.0 | 4.0 | 0.00 | 0.00 | 0.00 | 79 | 1005.8 |
| 20260506113202 | 63 | 157 | 1.0 | 4.0 | 0.00 | 0.00 | 0.00 | 77 | 1005.7 |
| 20260506112702 | 63 | 165 | 1.0 | 5.0 | 0.00 | 0.00 | 0.00 | 76 | 1005.7 |
| 20260506112202 | 64 | 240 | 1.0 | 6.0 | 0.00 | 0.00 | 0.00 | 75 | 1005.7 |
| 20260506111702 | 64 | 200 | 1.0 | 5.0 | 0.00 | 0.00 | 0.00 | 73 | 1005.5 |
| 20260506111244 | 65 | 179 | 1.0 | 5.0 | 0.00 | 0.00 | 0.00 | 72 | 1005.5 |
| 20260506110703 | 65 | 199 | 1.0 | 9.0 | 0.00 | 0.00 | 0.00 | 70 | 1005.5 |
| 20260506110202 | 65 | 197 | 1.0 | 4.0 | 0.00 | 0.00 | 0.00 | 69 | 1005.4 |
| 20260506105702 | 64 | 221 | 1.0 | 10.0 | 0.00 | 0.00 | 0.00 | 69 | 1005.3 |
| 20260506105202 | 65 | 175 | 0.0 | 4.0 | 0.00 | 0.00 | 0.00 | 69 | 1005.1 |
| 20260506104702 | 65 | 174 | 1.0 | 3.0 | 0.00 | 0.00 | 0.00 | 68 | 1005.0 |
| 20260506104244 | 65 | 258 | 1.0 | 6.0 | 0.00 | 0.00 | 0.00 | 68 | 1004.9 |
| 20260506103702 | 65 | 297 | 1.0 | 6.0 | 0.00 | 0.00 | 0.00 | 68 | 1005.0 |
| 20260506103202 | 65 | 159 | 1.0 | 6.0 | 0.00 | 0.00 | 0.00 | 67 | 1004.8 |
| 20260506102702 | 65 | 150 | 1.0 | 5.0 | 0.00 | 0.00 | 0.00 | 67 | 1004.7 |
| 20260506102202 | 65 | 279 | 2.0 | 5.0 | 0.00 | 0.00 | 0.00 | 67 | 1004.7 |
| 20260506101702 | 65 | 154 | 2.0 | 8.0 | 0.00 | 0.00 | 0.00 | 67 | 1004.7 |
| 20260506101244 | 65 | 235 | 2.0 | 6.0 | 0.00 | 0.00 | 0.00 | 67 | 1004.7 |
| 20260506100244 | 65 | 183 | 2.0 | 5.0 | 0.00 | 0.00 | 0.00 | 66 | 1004.7 |
| 20260506095703 | 65 | 140 | 2.0 | 6.0 | 0.00 | 0.00 | 0.00 | 66 | 1004.5 |
| 20260506095202 | 65 | 158 | 1.0 | 4.0 | 0.00 | 0.00 | 0.00 | 65 | 1004.7 |
| 20260506094702 | 65 | 157 | 1.0 | 7.0 | 0.00 | 0.00 | 0.00 | 65 | 1004.8 |
| 20260506094202 | 66 | 121 | 1.0 | 5.0 | 0.00 | 0.00 | 0.00 | 64 | 1004.8 |
| 20260506093702 | 66 | 122 | 1.0 | 2.0 | 0.00 | 0.00 | 0.00 | 63 | 1004.8 |
| 20260506093202 | 66 | 129 | 1.0 | 6.0 | 0.00 | 0.00 | 0.00 | 63 | 1004.8 |
| 20260506092702 | 66 | 173 | 2.0 | 4.0 | 0.00 | 0.00 | 0.00 | 62 | 1004.9 |
| 20260506092202 | 66 | 183 | 2.0 | 10.0 | 0.00 | 0.00 | 0.00 | 62 | 1004.9 |
| 20260506091702 | 66 | 172 | 2.0 | 8.0 | 0.00 | 0.00 | 0.00 | 62 | 1004.9 |
| 20260506091202 | 66 | 178 | 2.0 | 7.0 | 0.00 | 0.00 | 0.00 | 62 | 1005.0 |
| 20260506090703 | 66 | 203 | 2.0 | 16.0 | 0.00 | 0.00 | 0.00 | 61 | 1005.1 |
| 20260506090244 | 66 | 223 | 1.0 | 15.0 | 0.00 | 0.00 | 0.00 | 61 | 1005.1 |
| 20260506085702 | 66 | 278 | 1.0 | 4.0 | 0.00 | 0.00 | 0.00 | 61 | 1005.0 |
| 20260506085244 | 66 | 290 | 1.0 | 11.0 | 0.00 | 0.00 | 0.00 | 60 | 1005.0 |
| 20260506084702 | 66 | 185 | 1.0 | 7.0 | 0.00 | 0.00 | 0.00 | 60 | 1005.1 |
| 20260506084202 | 66 | 180 | 1.0 | 5.0 | 0.00 | 0.00 | 0.00 | 60 | 1005.1 |
| 20260506083702 | 66 | 177 | 1.0 | 3.0 | 0.00 | 0.00 | 0.00 | 59 | 1005.1 |
| 20260506083202 | 66 | 153 | 1.0 | 6.0 | 0.00 | 0.00 | 0.00 | 59 | 1005.1 |
| 20260506082202 | 67 | 179 | 1.0 | 3.0 | 0.00 | 0.00 | 0.00 | 58 | 1005.2 |
| 20260506081702 | 67 | 199 | 1.0 | 9.0 | 0.00 | 0.00 | 0.00 | 58 | 1005.0 |
| 20260506081202 | 67 | 195 | 2.0 | 6.0 | 0.00 | 0.00 | 0.00 | 57 | 1005.2 |
| 20260506080702 | 67 | 284 | 2.0 | 6.0 | 0.00 | 0.00 | 0.00 | 57 | 1005.2 |
| 20260506080202 | 67 | 178 | 1.0 | 5.0 | 0.00 | 0.00 | 0.00 | 57 | 1005.2 |
| 20260506073202 | 67 | 179 | 2.0 | 7.0 | 0.00 | 0.00 | 0.00 | 55 | 1005.2 |
| 20260506072702 | 67 | 186 | 2.0 | 5.0 | 0.00 | 0.00 | 0.00 | 55 | 1005.2 |
| 20260506071702 | 67 | 231 | 1.0 | 5.0 | 0.00 | 0.00 | 0.00 | 54 | 1005.4 |
| 20260506071244 | 67 | 198 | 1.0 | 7.0 | 0.00 | 0.00 | 0.00 | 55 | 1005.5 |
| 20260506070702 | 67 | 192 | 1.0 | 4.0 | 0.00 | 0.00 | 0.00 | 54 | 1005.4 |
| 20260506070202 | 67 | 156 | 2.0 | 6.0 | 0.00 | 0.00 | 0.00 | 54 | 1005.4 |
| 20260506062202 | 68 | 227 | 2.0 | 5.0 | 0.00 | 0.00 | 0.00 | 51 | 1005.9 |
| 20260506061744 | 68 | 212 | 2.0 | 7.0 | 0.00 | 0.00 | 0.00 | 51 | 1006.0 |
| 20260506061202 | 68 | 188 | 2.0 | 10.0 | 0.00 | 0.00 | 0.00 | 52 | 1006.1 |
| 20260506060702 | 68 | 217 | 1.0 | 7.0 | 0.00 | 0.00 | 0.00 | 51 | 1006.1 |
| 20260506060202 | 68 | 200 | 2.0 | 4.0 | 0.00 | 0.00 | 0.00 | 50 | 1006.1 |
| 20260506051202 | 68 | 177 | 2.0 | 8.0 | 0.00 | 0.00 | 0.00 | 49 | 1006.5 |
| 20260506050702 | 68 | 184 | 1.0 | 8.0 | 0.00 | 0.00 | 0.00 | 49 | 1006.5 |
| 20260506050202 | 68 | 155 | 1.0 | 5.0 | 0.00 | 0.00 | 0.00 | 49 | 1006.6 |
| 20260506044702 | 68 | 179 | 2.0 | 7.0 | 0.00 | 0.00 | 0.00 | 48 | 1006.5 |
| 20260506044202 | 68 | 165 | 2.0 | 11.0 | 0.00 | 0.00 | 0.00 | 48 | 1006.5 |
| 20260506043702 | 68 | 196 | 2.0 | 11.0 | 0.00 | 0.00 | 0.00 | 48 | 1006.5 |
| 20260506043203 | 68 | 207 | 2.0 | 6.0 | 0.00 | 0.00 | 0.00 | 49 | 1006.5 |
| 20260506042744 | 68 | 167 | 2.0 | 16.0 | 0.00 | 0.00 | 0.00 | 48 | 1006.4 |
| 20260506042202 | 68 | 178 | 1.0 | 10.0 | 0.00 | 0.00 | 0.00 | 50 | 1006.4 |
| 20260506041702 | 68 | 192 | 1.0 | 10.0 | 0.00 | 0.00 | 0.00 | 50 | 1006.4 |
| 20260506041202 | 68 | 169 | 1.0 | 10.0 | 0.00 | 0.00 | 0.00 | 50 | 1006.5 |
| 20260506040703 | 68 | 194 | 1.0 | 4.0 | 0.00 | 0.00 | 0.00 | 50 | 1006.6 |
| 20260506040202 | 68 | 195 | 1.0 | 5.0 | 0.00 | 0.00 | 0.00 | 50 | 1006.6 |
| 20260506035702 | 68 | 175 | 1.0 | 6.0 | 0.00 | 0.00 | 0.00 | 50 | 1006.6 |
| 20260506035202 | 68 | 160 | 1.0 | 5.0 | 0.00 | 0.00 | 0.00 | 51 | 1006.7 |
| 20260506034702 | 68 | 162 | 1.0 | 4.0 | 0.00 | 0.00 | 0.00 | 51 | 1006.6 |
| 20260506034202 | 68 | 179 | 1.0 | 5.0 | 0.00 | 0.00 | 0.00 | 52 | 1006.5 |
| 20260506033744 | 68 | 213 | 1.0 | 3.0 | 0.00 | 0.00 | 0.00 | 51 | 1006.6 |
| 20260506033202 | 68 | 200 | 1.0 | 5.0 | 0.00 | 0.00 | 0.00 | 51 | 1006.6 |
| 20260506032745 | 68 | 225 | 1.0 | 6.0 | 0.00 | 0.00 | 0.00 | 51 | 1006.7 |
| 20260506032202 | 68 | 213 | 1.0 | 6.0 | 0.00 | 0.00 | 0.00 | 52 | 1006.7 |
| 20260506031702 | 68 | 228 | 1.0 | 5.0 | 0.00 | 0.00 | 0.00 | 52 | 1006.6 |
| 20260506031202 | 68 | 200 | 1.0 | 7.0 | 0.00 | 0.00 | 0.00 | 51 | 1006.7 |
| 20260506030702 | 68 | 214 | 1.0 | 9.0 | 0.00 | 0.00 | 0.00 | 52 | 1006.6 |
| 20260506030202 | 68 | 193 | 1.0 | 4.0 | 0.00 | 0.00 | 0.00 | 51 | 1006.6 |
| 20260506025702 | 68 | 243 | 1.0 | 5.0 | 0.00 | 0.00 | 0.00 | 52 | 1006.6 |
| 20260506025202 | 67 | 220 | 1.0 | 5.0 | 0.00 | 0.00 | 0.00 | 52 | 1006.7 |
| 20260506024703 | 67 | 225 | 1.0 | 4.0 | 0.00 | 0.00 | 0.00 | 52 | 1006.6 |
| 20260506024202 | 67 | 244 | 1.0 | 5.0 | 0.00 | 0.00 | 0.00 | 53 | 1006.6 |
| 20260506023702 | 67 | 151 | 1.0 | 4.0 | 0.00 | 0.00 | 0.00 | 54 | 1006.6 |
| 20260506023202 | 67 | 227 | 1.0 | 6.0 | 0.00 | 0.00 | 0.00 | 54 | 1006.7 |
| 20260506022745 | 67 | 250 | 1.0 | 12.0 | 0.00 | 0.00 | 0.00 | 54 | 1006.7 |
| 20260506022203 | 67 | 230 | 0.0 | 6.0 | 0.00 | 0.00 | 0.00 | 55 | 1006.8 |
| 20260506021702 | 67 | 227 | 1.0 | 3.0 | 0.00 | 0.00 | 0.00 | 56 | 1006.8 |
| 20260506021202 | 67 | 230 | 1.0 | 7.0 | 0.00 | 0.00 | 0.00 | 56 | 1006.8 |